Regional Weather Roundup
Issued by NWS Sterling, VA

Home | Current Version | Previous Version | Graphics & Text | Print | Product List | Glossary On
Versions: 1 2 3 4 5 6 7 8 9 10 11 12 13 14 15 16 17 18 19 20 21 22 23 24 25 26 27 28 29
000
ASUS41 KLWX 250010
RWRLWX

REGIONAL WEATHER ROUNDUP
NATIONAL WEATHER SERVICE BALTIMORE MD/WASHINGTON DC
800 PM EDT FRI OCT 24 2014

Note: "FAIR" indicates few or no clouds below 12,000 feet
with no significant weather and/or obstructions to visibility.
 TC=TEMPERATURE CELSIUS

 * =Non NWS site. Station does not report precipitation (e.g. rain,
    snow, etc.), thunder, or fog.

DCZ001-MDZ009-015-VAZ040>042-051-053>054-250100-
WASHINGTON METRO

CITY           SKY/WX    TMP DP  RH WIND       PRES   REMARKS
WASHINGTON NAT MOCLDY    64  36  35 NW10      29.94R
DULLES         MOCLDY    58  34  40 N3        29.95R
ANDREWS AFB    PTCLDY    60  40  47 W10       29.92R
FT BELVOIR     PTCLDY    53  44  73 W2        29.94R
QUANTICO       PTCLDY    53  45  74 NW7       29.95R
COLLEGE PARK*  PTCLDY    54  43  66 CALM      29.93R
LEESBURG*      CLOUDY    59  37  44 NW7       29.96R
MANASSAS*      PTCLDY    54  39  58 SE3       29.95R
GAITHERSBURG*  CLOUDY    57  34  41 NW10      29.98R

$$

MDZ006>007-011-014-250100-
BALTIMORE METRO

CITY           SKY/WX    TMP DP  RH WIND       PRES   REMARKS
BWI AIRPORT    MOCLDY    53  38  56 W7        29.91R
MD SCIENCE CTR   N/A     63  34  33 MISG      29.90S
MARTIN STATE   CLEAR     61  37  41 CALM      29.92R
ANNAPOLIS      PTCLDY    59  36  42 W6        29.91R
FORT MEADE*    PTCLDY    52  41  66 W6        29.94R

$$

MDZ012-015-019>023-250100-
MARYLAND EASTERN SHORE

CITY           SKY/WX    TMP DP  RH WIND       PRES   REMARKS
OCEAN CITY     CLEAR     57  46  66 W8        29.89R
SALISBURY      PTCLDY    57  47  69 W3        29.90R
BAY BRIDGE AP*   N/A     59  41  51 W6        29.91S
CAMBRIDGE*     PTCLDY    57  43  58 W5        29.91R

$$

MDZ017>025-250100-
SOUTHERN MARYLAND

CITY           SKY/WX    TMP DP  RH WIND       PRES   REMARKS
PATUXENT RIVER MOCLDY    57  41  55 W9        29.92R
ST INIGOES     CLEAR     53  43  68 CALM      29.92R
LEONARDTOWN*   CLEAR     52  41  66 W3        29.94S

$$

MDZ003>005-250100-
NORTH CENTRAL MARYLAND

CITY           SKY/WX    TMP DP  RH WIND       PRES   REMARKS
FREDERICK*     CLEAR     64  30  27 VRB3      29.97R
HAGERSTOWN APT MOCLDY    54  36  50 NW5       29.95R
WESTMINSTER*   CLOUDY    57  37  47 W9        29.93R

$$

MDZ501>502-250100-
WESTERN MARYLAND

CITY           SKY/WX    TMP DP  RH WIND       PRES   REMARKS
OAKLAND*       PTCLDY    45  36  70 W7        30.02S
CUMBERLAND*    PTCLDY    55  36  47 CALM      30.03S

$$

VAZ025>031-250100-
SHENANDOAH VALLEY

CITY           SKY/WX    TMP DP  RH WIND       PRES   REMARKS
WINCHESTER*    PTCLDY    55  30  38 NW8       29.96S
FRONT ROYAL*   FAIR      54  34  47 CALM      29.95S
LURAY*         FAIR      54  43  66 SE7       29.97R
NEW MARKET*    FAIR      47  38  73 CALM      29.97S
STAUNTON*      PTCLDY    55  39  54 CALM      30.00R
WAYNESBORO*    FAIR      51  38  62 CALM      29.97R

$$

WVZ021-048>050-054>055-250100-
EASTERN WEST VIRGINIA PANHANDLE

CITY           SKY/WX    TMP DP  RH WIND       PRES   REMARKS
MARTINSBURG    MOCLDY    57  33  40 W8        29.97R
PETERSBURG*    PTCLDY    51  35  53 CALM      30.01R

$$

VAZ036>039-050-250100-
CENTRAL FOOTHILLS

CITY           SKY/WX    TMP DP  RH WIND       PRES   REMARKS
CHARLOTTESVILL CLEAR     57  41  55 CALM      29.96R
CULPEPER*      PTCLDY    48  43  81 CALM      29.95S
ORANGE*        CLEAR     50  43  76 CALM      29.97R
GORDONSVILLE*  FAIR      47  44  88 CALM      29.95S
WARRENTON*     FAIR      46  44  93 CALM      29.94S

$$

VAZ055>057-250100-
NORTH AND CENTRAL PIEDMONT

CITY           SKY/WX    TMP DP  RH WIND       PRES   REMARKS
FREDERICKSBRG* CLEAR     53  48  83 CALM      29.94R
STAFFORD*      CLEAR     48  48 100 CALM      29.98S

$$

NCZ024-NYZ072-PAZ021-071-VAZ022-071-250100-
OTHER REGIONAL OBSERVATIONS

CITY           SKY/WX    TMP DP  RH WIND       PRES   REMARKS
NEW YORK CITY  CLEAR     56  46  69 CALM      29.83R
PHILADELPHIA   MOCLDY    62  41  46 W9        29.86R
PITTSBURGH     PTCLDY    54  37  52 SW5       30.01R
ROANOKE        PTCLDY    59  37  44 CALM      30.02R
RICHMOND       MOCLDY    54  44  69 CALM      29.95R
RALEIGH        MOCLDY    55  48  77 CALM      29.98S

$$

ANZ530>537-250100-
MARINE OBSERVATIONS

STATION/POSITION TIME  TEMP    WIND        PRES
                       AIR SEA DIR/SP/G
                 (UTC) (F)     (DEG/KT/KT) (MB)
THOMAS PT LIGHT  0000   62 62  280/  9/  9 1014.0R
BALT KEY BRIDGE  0000   64     290/ 12/ 14 1012.3S
COVE POINT       0000   61     300/  8/ 10 1012.8S
LEWISETTA        0000   60 60  300/  6/  7 1012.9S
SOLOMONS ISLAND  0000      64                N/A
PINEY POINT      0000          290/  6/  7   N/A

$$




USA.gov is the U.S. government's official web portal to all federal, state and local government web resources and services.